{"data":{"norad_id":55339,"intl_designator":"2023-013J","name":"STARLINK-5671","alt_names":[],"object_type":"PAYLOAD","status":"ACTIVE","operator":null,"country":"US","launch_date":"2023-01-26","launch_site_code":"AFETR","launch_vehicle":null,"mission":null,"orbit_class":"UNKNOWN","rcs_meters":null,"size_class":null,"mass_kg":null,"dimensions":null,"purposes":["comms"],"wikipedia_slug":null,"has_3d_model":false,"image_url":null,"decayed_at":null,"tle_current":{"epoch":"2026-05-24T22:44:49.759296Z","epoch_age_seconds":76872,"freshness":"FRESH","line1":"1 55339U 23013J   26144.94779814 -.00000245  00000+0  62029-6 0  9996","line2":"2 55339  43.0019 236.3621 0001026 275.2798  84.7936 15.27576336183291","mean_motion":15.27576336,"eccentricity":0.0001026,"inclination_deg":43.0019,"raan_deg":236.3621,"arg_perigee_deg":275.2798,"mean_anomaly_deg":84.7936,"bstar":6.2029e-7,"rev_number":18329,"period_min":94.266974819123,"perigee_km":482.35610857659,"apogee_km":483.76402621481,"semimajor_km":6861.1970673957,"source":"CELESTRAK","updated_at":"2026-05-25T13:38:17.761365Z"}}}